Location: ????????
(54.6123°N, 39.2099°E)
Time: 10:18:31
(UTC+00:00)

Cosmos 1538 Rocket - Pass Details

Date: 19 May 2025
Orbit: 749 x 788 km, 74.0° (Epoch: 13 June)

Event Time Altitude Azimuth Distance (km) Brightness Sun altitude
Exits shadow 21:10:26 20° 207° (SSW) 1,670 5.2 -15.4°
Maximum altitude 21:14:01 88° 298° (WNW) 760 3.9 -15.4°
Drops below altitude 10° 21:19:12 10° 27° (NNE) 2,282 7.5 -15.4°
Sets 21:21:34 0° 28° (NNE) 3,211 8.4 -15.4°
